Location: Adavinekkalam
(16.6301°N, 80.7229°E)
Time: 21:55:35
(UTC+00:00)

Cosmos 1603 - Pass Details

Date: 15 May 2026
Orbit: 828 x 860 km, 71.0° (Epoch: 10 June)

Event Time Altitude Azimuth Distance (km) Brightness Sun altitude
Rises 22:07:42 0° 345° (NNW) 3,425 7.1 -26.4°
Reaches altitude 10° 22:10:10 10° 346° (NNW) 2,485 6.3 -25.9°
Maximum altitude 22:15:53 81° 74° (ENE) 866 3.7 -24.7°
Drops below altitude 10° 22:21:34 10° 161° (SSE) 2,465 6.0 -23.6°
Sets 22:24:00 0° 162° (SSE) 3,394 6.7 -23.1°
